South Hill, VA

11:18 AM EST on December 12, 2019 (GMT -0500)
Mecklenburg-Brunswick Regional

Weather History for KAVC - September, 2019

Change the Weather History Date:

Saturday, September 7, 2019

  Actual Average (WUND) Record (WUND)
Temperature  
Mean Temperature 72 °F -  
Max Temperature 87 °F - - (-1)
Min Temperature 59 °F - - (-1)
Cooling Degree Days 8    
Growing Degree Days 22 (Base 50)    
Moisture  
Dew Point 63 °F    
Average Humidity 77    
Maximum Humidity 100    
Minimum Humidity 40    
Precipitation  
Precipitation 0.00 in - - ()
Sea Level Pressure  
Sea Level Pressure 29.95 in    
Wind  
Wind Speed 1 mph (NW)    
Max Wind Speed 9 mph    
Max Gust Speed -    
Averages and records for this station are not official NWS values.
T = Trace of Precipitation, MM = Missing Value Source: NWS Daily Summary

Daily Weather History Graph

Daily Weather History Graph

Search for Another Location

Airport or City:

Astronomy

Sep. 07, 2019 Rise Set
Actual Time 6:47 AM EDT 7:31 PM EDT
Civil Twilight 6:21 AM EDT 7:58 PM EDT
Nautical Twilight 5:50 AM EDT 8:29 PM EDT
Astronomical Twilight 5:18 AM EDT 9:00 PM EDT
Moon 3:38 PM EDT (9/7) 12:45 AM EDT (9/7)
Length of Visible Light 13h 36m
Length of Day
12h 44m
Waxing Gibbous, 65% of the Moon is Illuminated
Sep 7
Waxing Gibbous
Sep 14
Full
Sep 21
Last Quarter
Sep 28
New
Oct 5
First Quarter

Hourly Weather History & Observations

Time (EDT) Temp. Heat Index Dew Point Humidity Pressure Visibility Wind Dir Wind Speed Gust Speed Precip Events Conditions
12:15 AM 66.0 °F - 66.0 °F 100% 29.88 in - Calm Calm - N/A   Unknown
12:35 AM 66.2 °F - 65.8 °F 99% 29.88 in - Calm Calm - N/A   Mostly Cloudy
12:55 AM 67.1 °F - 66.6 °F 98% 29.89 in - Calm Calm - N/A   Overcast
1:15 AM 65.3 °F - 65.3 °F 100% 29.89 in - Calm Calm - N/A   Overcast
1:35 AM 66.0 °F - 66.0 °F 100% 29.90 in - Calm Calm - N/A   Overcast
1:55 AM 65.5 °F - 65.5 °F 100% 29.90 in - Calm Calm - N/A   Mostly Cloudy
2:15 AM 65.5 °F - 65.5 °F 100% 29.90 in - Calm Calm - N/A   Overcast
2:35 AM 64.6 °F - 64.6 °F 100% 29.90 in - Calm Calm - N/A   Mostly Cloudy
2:55 AM 64.2 °F - 64.2 °F 100% 29.90 in - Calm Calm - N/A   Mostly Cloudy
3:15 AM 63.9 °F - 63.9 °F 100% 29.90 in - Calm Calm - N/A   Unknown
3:35 AM 62.1 °F - 62.1 °F 100% 29.90 in - Calm Calm - N/A   Unknown
3:55 AM 62.4 °F - 62.4 °F 100% 29.90 in - Calm Calm - N/A   Unknown
4:15 AM 63.3 °F - 63.3 °F 100% 29.90 in - Calm Calm - N/A   Unknown
4:35 AM 62.6 °F - 62.6 °F 100% 29.91 in - Calm Calm - N/A   Unknown
4:55 AM 61.7 °F - 61.7 °F 100% 29.92 in - Calm Calm - N/A   Unknown
5:15 AM 61.9 °F - 61.9 °F 100% 29.92 in - Calm Calm - N/A   Unknown
5:35 AM 59.5 °F - 59.5 °F 100% 29.92 in - Calm Calm - N/A   Unknown
5:55 AM 60.1 °F - 60.1 °F 100% 29.92 in - Calm Calm - N/A   Unknown
6:15 AM 59.9 °F - 59.9 °F 100% 29.93 in - Calm Calm - N/A   Unknown
6:35 AM 59.7 °F - 59.7 °F 100% 29.94 in - Calm Calm - N/A   Unknown
6:55 AM 59.7 °F - 59.7 °F 100% 29.96 in - Calm Calm - N/A   Unknown
7:15 AM 60.4 °F - 60.4 °F 100% 29.96 in - Calm Calm - N/A   Unknown
7:35 AM 59.0 °F - 59.0 °F 100% 29.97 in - Calm Calm - N/A   Unknown
7:55 AM 61.2 °F - 61.2 °F 100% 29.97 in - Calm Calm - N/A   Unknown
8:15 AM 64.6 °F - 64.6 °F 100% 29.97 in - Calm Calm - N/A   Unknown
8:55 AM 69.8 °F - 67.6 °F 93% 29.98 in - Calm Calm - N/A   Unknown
9:15 AM 71.8 °F - 68.0 °F 88% 29.99 in - SSW 5.8 mph - N/A   Unknown
9:35 AM 74.3 °F - 67.5 °F 79% 29.99 in - SW 3.5 mph - N/A   Clear
9:55 AM 75.2 °F - 66.2 °F 73% 29.99 in - WSW 3.5 mph - N/A   Clear
10:15 AM 77.4 °F - 66.0 °F 68% 29.99 in - West 3.5 mph - N/A   Clear
10:35 AM 78.3 °F - 64.8 °F 63% 29.99 in - NNW 5.8 mph - N/A   Clear
10:55 AM 79.3 °F - 64.8 °F 61% 29.99 in - NNW 5.8 mph - N/A   Clear
11:15 AM 80.2 °F 82.0 °F 64.6 °F 59% 29.98 in - NNW 5.8 mph - N/A   Clear
11:35 AM 81.1 °F 82.7 °F 64.0 °F 56% 29.98 in - NW 3.5 mph - N/A   Clear
11:55 AM 81.7 °F 82.7 °F 62.6 °F 52% 29.98 in - NW 4.6 mph - N/A   Clear
12:15 PM 81.9 °F 82.9 °F 62.4 °F 52% 29.97 in - NNW 4.6 mph - N/A   Scattered Clouds
12:35 PM 82.9 °F 83.8 °F 62.8 °F 50% 29.97 in - NNW 5.8 mph - N/A   Clear
12:55 PM 83.5 °F 84.5 °F 62.8 °F 50% 29.96 in - North 9.2 mph - N/A   Mostly Cloudy
1:15 PM 83.8 °F 84.3 °F 61.3 °F 47% 29.96 in - NNW 4.6 mph - N/A   Scattered Clouds
1:35 PM 84.6 °F 84.8 °F 60.8 °F 45% 29.96 in - North 5.8 mph - N/A   Scattered Clouds
1:55 PM 83.7 °F 83.9 °F 61.0 °F 46% 29.96 in - NW 3.5 mph - N/A   Scattered Clouds
2:15 PM 84.4 °F 84.6 °F 60.6 °F 45% 29.95 in - West 4.6 mph - N/A   Scattered Clouds
2:35 PM 83.7 °F 83.6 °F 59.5 °F 44% 29.95 in - West 3.5 mph - N/A   Mostly Cloudy
2:55 PM 86.0 °F 85.9 °F 60.6 °F 42% 29.94 in - West 5.8 mph - N/A   Scattered Clouds
3:15 PM 84.9 °F 85.0 °F 60.8 °F 44% 29.94 in - NNW 5.8 mph - N/A   Mostly Cloudy
3:35 PM 85.5 °F 85.0 °F 59.5 °F 41% 29.93 in - Calm Calm - N/A   Mostly Cloudy
3:55 PM 86.4 °F 86.3 °F 60.4 °F 42% 29.93 in - WNW 4.6 mph - N/A   Scattered Clouds
4:15 PM 85.8 °F 85.7 °F 60.3 °F 42% 29.92 in - North 4.6 mph - N/A   Scattered Clouds
4:35 PM 86.7 °F 86.3 °F 59.7 °F 40% 29.93 in - NNW 3.5 mph - N/A   Scattered Clouds
4:55 PM 86.5 °F 86.3 °F 60.1 °F 41% 29.93 in - NNW 4.6 mph - N/A   Mostly Cloudy
5:15 PM 85.3 °F 85.2 °F 60.6 °F 43% 29.93 in - NW 3.5 mph - N/A   Mostly Cloudy
5:55 PM 85.5 °F 85.7 °F 61.5 °F 44% 29.94 in - Calm Calm - N/A   Scattered Clouds
6:15 PM 84.4 °F 84.8 °F 61.7 °F 46% 29.95 in - North 6.9 mph - N/A   Scattered Clouds
6:35 PM 83.3 °F 83.9 °F 61.5 °F 48% 29.96 in - North 5.8 mph - N/A   Scattered Clouds
6:55 PM 82.0 °F 83.0 °F 62.4 °F 51% 29.96 in - Calm Calm - N/A   Scattered Clouds
7:15 PM 79.9 °F - 62.8 °F 56% 29.97 in - Calm Calm - N/A   Scattered Clouds
7:35 PM 76.1 °F - 65.5 °F 70% 29.97 in - Calm Calm - N/A   Scattered Clouds
7:55 PM 72.7 °F - 66.2 °F 80% 29.98 in - Calm Calm - N/A   Scattered Clouds
8:15 PM 71.8 °F - 65.1 °F 79% 29.99 in - Calm Calm - N/A   Clear
8:35 PM 71.1 °F - 65.1 °F 81% 29.99 in - Calm Calm - N/A   Clear
8:55 PM 69.6 °F - 64.8 °F 84% 30.00 in - Calm Calm - N/A   Clear
9:15 PM 67.8 °F - 66.0 °F 94% 30.00 in - Calm Calm - N/A   Unknown
9:35 PM 67.3 °F - 65.3 °F 93% 30.01 in - Calm Calm - N/A   Unknown
9:55 PM 66.9 °F - 65.3 °F 95% 30.01 in - Calm Calm - N/A   Unknown
10:15 PM 66.6 °F - 66.2 °F 99% 30.01 in - Calm Calm - N/A   Mostly Cloudy
10:35 PM 67.6 °F - 65.7 °F 93% 30.01 in - Calm Calm - N/A   Mostly Cloudy
10:55 PM 65.3 °F - 65.3 °F 100% 30.02 in - Calm Calm - N/A   Mostly Cloudy
11:15 PM 65.5 °F - 65.3 °F 99% 30.02 in - Calm Calm - N/A   Unknown
11:35 PM 64.4 °F - 64.4 °F 100% 30.02 in - Calm Calm - N/A   Unknown
11:55 PM 64.0 °F - 64.0 °F 100% 30.03 in - Calm Calm - N/A   Unknown